Quincy, IL

12:57 AM CDT on March 24, 2017 (GMT -0500)
Quincy Regional-Baldwin

Weather History for KUIN - January, 2014

Change the Weather History Date:

Tuesday, January 14, 2014

  Actual Average Record
Temperature  
Mean Temperature 41 °F 26 °F  
Max Temperature 52 °F 34 °F 66 °F (1952)
Min Temperature 30 °F 18 °F -15 °F (1979)
Degree Days  
Heating Degree Days 24 39  
Month to date heating degree days 593 542  
Since 1 July heating degree days 2909 2733  
Cooling Degree Days 0 0  
Month to date cooling degree days 0 0  
Year to date cooling degree days 0 0  
Moisture  
Dew Point 28 °F    
Average Humidity 63    
Maximum Humidity 85    
Minimum Humidity 41    
Precipitation  
Precipitation 0.02 in 0.05 in 0.87 in (1940)
Month to date precipitation 0.60 0.72  
Year to date precipitation 0.60 0.72  
Sea Level Pressure  
Sea Level Pressure 29.87 in    
Wind  
Wind Speed 18 mph (West)    
Max Wind Speed 32 mph    
Max Gust Speed 40 mph    
Visibility 10 miles    
Events Rain    
T = Trace of Precipitation, MM = Missing Value Source: NWS Daily Summary

Daily Weather History Graph

Daily Weather History Graph

Search for Another Location

Airport or City:

Trip Planner

Search our weather history database for the weather conditions in past years. The results will help you decide how hot, cold, wet, or windy it might be!

Date:

Astronomy

Jan. 14, 2014 Rise Set
Actual Time 7:24 AM CST 5:03 PM CST
Civil Twilight 6:55 AM CST 5:32 PM CST
Nautical Twilight 6:21 AM CST 6:06 PM CST
Astronomical Twilight 5:49 AM CST 6:38 PM CST
Moon 4:08 PM CST (1/14) 5:59 AM CST (1/14)
Length of Visible Light 10h 37m
Length of Day
9h 38m
Waxing Gibbous, 98% of the Moon is Illuminated
Jan 14
Waxing Gibbous
Jan 15
Full
Jan 23
Last Quarter
Jan 30
New
Feb 6
First Quarter

Hourly Weather History & Observations

Time (CST) Temp. Windchill Dew Point Humidity Pressure Visibility Wind Dir Wind Speed Gust Speed Precip Events Conditions
12:54 AM 30.0 °F 23.2 °F 26.1 °F 85% 29.79 in 10.0 mi South 6.9 mph - N/A   Clear
1:54 AM 30.0 °F 22.4 °F 25.0 °F 82% 29.78 in 10.0 mi South 8.1 mph - N/A   Clear
2:54 AM 30.9 °F 23.5 °F 25.0 °F 79% 29.76 in 10.0 mi South 8.1 mph - N/A   Clear
3:54 AM 32.0 °F 24.2 °F 24.1 °F 73% 29.73 in 10.0 mi South 9.2 mph - N/A   Clear
4:54 AM 33.1 °F 24.9 °F 24.1 °F 70% 29.70 in 10.0 mi South 10.4 mph - N/A   Clear
5:54 AM 33.1 °F 24.9 °F 26.1 °F 75% 29.70 in 10.0 mi SSW 10.4 mph - N/A   Overcast
6:54 AM 51.1 °F - 28.0 °F 41% 29.69 in 10.0 mi SSW 8.1 mph - 0.00 in   Overcast
7:54 AM 45.0 °F 40.1 °F 28.0 °F 52% 29.73 in 10.0 mi West 9.2 mph - 0.00 in   Overcast
8:06 AM 46.0 °F 41.9 °F 28.9 °F 51% 29.73 in 10.0 mi West 8.1 mph - 0.00 in Rain Light Rain
8:54 AM 45.0 °F 40.6 °F 32.0 °F 60% 29.78 in 10.0 mi West 8.1 mph - 0.02 in   Overcast
9:21 AM 48.9 °F - 33.1 °F 54% 29.78 in 10.0 mi West 11.5 mph - N/A   Overcast
9:46 AM 52.0 °F - 32.0 °F 47% 29.80 in 10.0 mi NW 18.4 mph 25.3 mph N/A   Overcast
9:54 AM 50.0 °F - 32.0 °F 50% 29.83 in 10.0 mi NW 21.9 mph 33.4 mph N/A   Mostly Cloudy
10:08 AM 48.0 °F - 28.0 °F 46% 29.82 in 10.0 mi NW 20.7 mph 34.5 mph N/A   Scattered Clouds
10:54 AM - - - N/A% 29.85 in 10.0 mi NW 19.6 mph - N/A   Clear
11:54 AM - - - N/A% 29.86 in 10.0 mi NW 29.9 mph 36.8 mph N/A   Partly Cloudy
12:54 PM - - - N/A% 29.87 in 10.0 mi NW 27.6 mph 34.5 mph N/A   Partly Cloudy
1:54 PM - - - N/A% 29.91 in 10.0 mi NNW 25.3 mph 33.4 mph N/A   Mostly Cloudy
2:54 PM - - - N/A% 29.93 in 10.0 mi WNW 23.0 mph 28.8 mph N/A   Mostly Cloudy
3:54 PM - - - N/A% 29.96 in 10.0 mi NW 24.2 mph 32.2 mph N/A   Overcast
4:54 PM - - - N/A% 30.01 in 10.0 mi WNW 25.3 mph 32.2 mph N/A   Mostly Cloudy
5:54 PM - - - N/A% 30.04 in 10.0 mi WNW 23.0 mph - N/A   Overcast
6:54 PM - - - N/A% 30.04 in 10.0 mi WNW 19.6 mph - N/A   Overcast
7:54 PM - - - N/A% 30.04 in 10.0 mi WNW 25.3 mph 34.5 mph N/A   Overcast
8:54 PM - - - N/A% 30.05 in 10.0 mi NW 24.2 mph 33.4 mph N/A   Overcast
9:54 PM - - - N/A% 30.07 in 10.0 mi WNW 24.2 mph 31.1 mph 0.00 in   Overcast
10:54 PM - - - N/A% 30.07 in 10.0 mi NW 23.0 mph 29.9 mph N/A   Mostly Cloudy
11:54 PM - - - N/A% 30.08 in 10.0 mi NW 18.4 mph - N/A   Overcast